Kirkenes Lufthavn, Norway

12:37 AM CEST on March 30, 2017 (GMT +0200)
Hoybuktmoen

Weather History for ENKR - December, 2012

Change the Weather History Date:

Sunday, December 30, 2012

  Actual Average Record
Temperature  
Mean Temperature 10 °F -  
Max Temperature 24 °F 16 °F 39 °F (2008)
Min Temperature -5 °F 5 °F -5 °F (2001)
Degree Days  
Heating Degree Days 56    
Moisture  
Dew Point 12 °F    
Average Humidity 88    
Maximum Humidity 93    
Minimum Humidity 80    
Precipitation  
Precipitation 0.00 in - - ()
Sea Level Pressure  
Sea Level Pressure 29.64 in    
Wind  
Wind Speed 13 mph ()    
Max Wind Speed 26 mph    
Max Gust Speed 40 mph    
Visibility 4.3 miles    
Events Snow    
Averages and records for this station are not official NWS values.
T = Trace of Precipitation, MM = Missing Value Source: Averaged Metar Reports

Daily Weather History Graph

Daily Weather History Graph

Search for Another Location

Airport or City:

Trip Planner

Search our weather history database for the weather conditions in past years. The results will help you decide how hot, cold, wet, or windy it might be!

Date:

Astronomy

Jan. 01, 1970 Rise Set
Actual Time Sun does not rise Sun does not rise
Civil Twilight 8:46 AM CET 1:19 PM CET
Nautical Twilight 7:04 AM CET 3:02 PM CET
Astronomical Twilight 5:46 AM CET 4:20 PM CET
Moon 3:41 PM CET (12/30) 9:42 AM CET (12/30)
Length of Visible Light 4h 32m
Length of Day
0h 00m
Waning Gibbous, 96% of the Moon is Illuminated
Dec 30
Waning Gibbous
Jan 5
Last Quarter
Jan 11
New
Jan 19
First Quarter
Jan 27
Full

Hourly Weather History & Observations

Time (CET) Temp. Windchill Dew Point Humidity Pressure Visibility Wind Dir Wind Speed Gust Speed Precip Events Conditions
12:50 AM -4.0 °F -17.8 °F -7.6 °F 85% 29.89 in 6.2 mi SW 6.9 mph - N/A   Unknown
1:00 AM -0 °F - -3 °F 81% 29.94 in - SSE 6.7 mph - -  
1:50 AM -2.2 °F -20.7 °F -5.8 °F 85% 29.89 in 6.2 mi SSE 12.7 mph - N/A   Unknown
2:50 AM 1.4 °F -18.2 °F -2.2 °F 85% 29.86 in 6.2 mi SSE 16.1 mph - N/A   Ice Crystals
3:50 AM 6.8 °F -10.7 °F 3.2 °F 85% 29.86 in 6.2 mi SSE 15.0 mph - N/A Snow Snow Grains
4:50 AM 8.6 °F -8.3 °F 6.8 °F 92% 29.83 in - SSE 15.0 mph - N/A   Clear
5:50 AM 6.8 °F -10.0 °F 5.0 °F 92% 29.83 in 6.2 mi SSE 13.8 mph - N/A   Ice Crystals
6:50 AM 6.8 °F -8.6 °F 3.2 °F 85% 29.80 in 6.2 mi SSE 11.5 mph - N/A   Partly Cloudy
7:00 AM 6 °F - 3 °F 83% 29.83 in - SE 8.9 mph - -  
7:50 AM 14.0 °F -0.2 °F 12.2 °F 93% 29.77 in 6.2 mi SSE 12.7 mph - N/A   Overcast
8:50 AM 14.0 °F -2.0 °F 12.2 °F 93% 29.74 in 6.2 mi SSE 16.1 mph - N/A   Overcast
9:50 AM 15.8 °F 3.4 °F 14.0 °F 93% 29.74 in - SSE 10.4 mph - N/A   Clear
10:50 AM 19.4 °F 7.2 °F 15.8 °F 86% 29.71 in - SSE 11.5 mph - N/A   Clear
11:50 AM 19.4 °F 6.0 °F 15.8 °F 86% 29.68 in 6.2 mi South 13.8 mph - N/A   Mostly Cloudy
12:50 PM 21.2 °F 7.8 °F 17.6 °F 86% 29.62 in 5.0 mi South 15.0 mph - N/A Snow Light Snow
1:00 PM 23 °F - 20 °F 84% 29.65 in - SSE 17.9 mph - -  
1:50 PM 23.0 °F 8.3 °F 19.4 °F 86% 29.59 in 3.1 mi SSE 19.6 mph 31.1 mph N/A Snow Light Snow
2:50 PM 23.0 °F 6.3 °F 21.2 °F 93% 29.53 in 1.2 mi SSE 26.5 mph - N/A Snow Light Snow
3:50 PM 23.0 °F 6.3 °F 19.4 °F 86% 29.47 in 1.2 mi SSE 26.5 mph 40.3 mph N/A Snow Snow
5:50 PM 23.0 °F 6.6 °F 21.2 °F 93% 29.42 in 1.7 mi SSE 25.3 mph - N/A Snow Snow
6:50 PM 23.0 °F 8.7 °F 21.2 °F 93% 29.39 in 2.2 mi South 18.4 mph - N/A Snow Light Snow
7:00 PM 24 °F - 20 °F 80% 29.42 in - SSE 20.1 mph - -  
7:50 PM 23.0 °F 8.0 °F 19.4 °F 86% 29.39 in 4.3 mi South 20.7 mph - N/A Snow Light Snow
8:50 PM 23.0 °F 7.2 °F 19.4 °F 86% 29.36 in 4.3 mi SSE 23.0 mph - N/A Snow Light Snow
9:50 PM 23.0 °F 6.9 °F 21.2 °F 93% 29.33 in 1.2 mi SSE 24.2 mph - N/A Snow Snow
10:50 PM 23.0 °F 7.6 °F 21.2 °F 93% 29.33 in 3.1 mi SSE 21.9 mph - N/A Snow Light Snow
11:50 PM 23.0 °F 6.9 °F 21.2 °F 93% 29.33 in 3.1 mi SSE 24.2 mph - N/A Snow Light Snow